| time (UTC) | temp C | wind direction | speed KPH | gust KPH | rain 1hr cm | rain 24hr cm | rain mn cm | humidity % | barometer mb |
| 20260902153045 | 24 | 69 | 3.2 | 8.0 | 0.00 | 0.10 | 0.10 | 68 | 1012.1 |
| 20260902151546 | 23 | 66 | 4.8 | 9.7 | 0.00 | 0.10 | 0.10 | 71 | 1012.1 |
| 20260902150037 | 23 | 178 | 6.4 | 11.3 | 0.00 | 0.10 | 0.10 | 71 | 1012.1 |
| 20260902144537 | 22 | 13 | 3.2 | 9.7 | 0.00 | 0.10 | 0.10 | 72 | 1012.1 |
| 20260902143033 | 22 | 156 | 3.2 | 6.4 | 0.00 | 0.10 | 0.10 | 74 | 1012.4 |
| 20260902141526 | 22 | 124 | 3.2 | 8.0 | 0.00 | 0.10 | 0.10 | 75 | 1012.5 |
| 20260902140022 | 21 | 207 | 1.6 | 9.7 | 0.00 | 0.10 | 0.10 | 77 | 1012.6 |
| 20260902134518 | 20 | 74 | 1.6 | 12.9 | 0.00 | 0.10 | 0.10 | 80 | 1012.4 |
| 20260902133017 | 20 | 48 | 4.8 | 8.0 | 0.00 | 0.10 | 0.10 | 79 | 1012.4 |
| 20260902131515 | 20 | 26 | 4.8 | 9.7 | 0.00 | 0.10 | 0.10 | 79 | 1012.5 |
| 20260902130013 | 20 | 72 | 1.6 | 8.0 | 0.00 | 0.10 | 0.10 | 82 | 1012.2 |
| 20260902124511 | 19 | 24 | 0.0 | 6.4 | 0.00 | 0.10 | 0.10 | 85 | 1012.4 |
| 20260902123009 | 18 | 30 | 1.6 | 6.4 | 0.00 | 0.10 | 0.10 | 86 | 1012.4 |
| 20260902121506 | 18 | 32 | 3.2 | 6.4 | 0.00 | 0.10 | 0.10 | 87 | 1012.1 |
| 20260902120005 | 18 | 61 | 1.6 | 6.4 | 0.00 | 0.10 | 0.10 | 87 | 1012.4 |
| 20260902114502 | 18 | 130 | 0.0 | 3.2 | 0.00 | 0.10 | 0.10 | 87 | 1012.4 |
| 20260902113001 | 18 | 130 | 0.0 | 4.8 | 0.00 | 0.10 | 0.10 | 86 | 1012.3 |
| 20260902111500 | 18 | 136 | 3.2 | 12.9 | 0.00 | 0.10 | 0.10 | 86 | 1012.9 |
| 20260902110107 | 18 | 140 | 0.0 | 4.8 | 0.00 | 0.10 | 0.10 | 85 | 1013.0 |
| 20260902104558 | 18 | 155 | 1.6 | 3.2 | 0.00 | 0.10 | 0.10 | 84 | 1012.9 |
| 20260902103057 | 18 | 157 | 1.6 | 4.8 | 0.00 | 0.10 | 0.10 | 84 | 1013.1 |
| 20260902101557 | 18 | 157 | 0.0 | 8.0 | 0.00 | 0.10 | 0.10 | 84 | 1013.2 |
| 20260902100109 | 18 | 86 | 1.6 | 4.8 | 0.00 | 0.10 | 0.10 | 83 | 1013.0 |
| 20260902094612 | 18 | 85 | 1.6 | 4.8 | 0.00 | 0.10 | 0.10 | 82 | 1012.4 |
| 20260902093055 | 18 | 162 | 4.8 | 11.3 | 0.00 | 0.10 | 0.10 | 82 | 1012.0 |
| 20260902091600 | 18 | 163 | 9.7 | 16.1 | 0.00 | 0.10 | 0.10 | 83 | 1012.0 |
| 20260902090052 | 19 | 170 | 9.7 | 16.1 | 0.00 | 0.10 | 0.10 | 81 | 1011.5 |
| 20260902084551 | 19 | 65 | 8.0 | 17.7 | 0.00 | 0.10 | 0.10 | 79 | 1010.5 |
| 20260902083054 | 19 | 360 | 8.0 | 19.3 | 0.00 | 0.10 | 0.10 | 79 | 1010.7 |
| 20260902081546 | 19 | 65 | 4.8 | 12.9 | 0.03 | 0.10 | 0.10 | 82 | 1011.3 |
| 20260902080057 | 18 | 123 | 3.2 | 9.7 | 0.08 | 0.10 | 0.10 | 83 | 1012.0 |
| 20260902074543 | 18 | 105 | 1.6 | 11.3 | 0.10 | 0.10 | 0.10 | 80 | 1012.3 |
| 20260902073042 | 19 | 159 | 4.8 | 12.9 | 0.10 | 0.10 | 0.10 | 80 | 1011.7 |
| 20260902071538 | 20 | 86 | 4.8 | 12.9 | 0.08 | 0.08 | 0.08 | 80 | 1011.8 |
| 20260902070034 | 20 | 144 | 6.4 | 20.9 | 0.03 | 0.03 | 0.03 | 81 | 1012.9 |
| 20260902064532 | 21 | 195 | 12.9 | 24.1 | 0.00 | 0.00 | 0.00 | 79 | 1014.2 |
| 20260902063036 | 21 | 152 | 22.5 | 33.8 | 0.00 | 0.00 | 0.00 | 80 | 1014.8 |
| 20260902061542 | 22 | 28 | 1.6 | 4.8 | 0.00 | 0.00 | 0.00 | 70 | 1013.9 |
| 20260902060024 | 22 | 28 | 1.6 | 4.8 | 0.00 | 0.00 | 0.00 | 70 | 1012.9 |
| 20260902054523 | 22 | 28 | 3.2 | 6.4 | 0.00 | 0.00 | 0.00 | 73 | 1012.0 |
| 20260902053023 | 22 | 44 | 1.6 | 3.2 | 0.00 | 0.00 | 0.00 | 73 | 1012.3 |
| 20260902051517 | 22 | 111 | 1.6 | 3.2 | 0.00 | 0.00 | 0.00 | 71 | 1012.8 |
| 20260902050014 | 23 | 60 | 0.0 | 1.6 | 0.00 | 0.00 | 0.00 | 70 | 1013.5 |
| 20260902044513 | 23 | 60 | 1.6 | 3.2 | 0.00 | 0.00 | 0.00 | 67 | 1012.5 |
| 20260902043012 | 23 | 103 | 1.6 | 4.8 | 0.00 | 0.00 | 0.00 | 67 | 1012.4 |
| 20260902041512 | 23 | 129 | 0.0 | 4.8 | 0.00 | 0.00 | 0.00 | 66 | 1012.1 |
| 20260902040013 | 23 | 227 | 0.0 | 1.6 | 0.00 | 0.00 | 0.00 | 68 | 1012.3 |
| 20260902034512 | 24 | 227 | 0.0 | 3.2 | 0.00 | 0.00 | 0.00 | 68 | 1012.1 |
| 20260902033022 | 24 | 229 | 1.6 | 4.8 | 0.00 | 0.00 | 0.00 | 67 | 1012.7 |
| 20260902031509 | 24 | 294 | 0.0 | 1.6 | 0.00 | 0.00 | 0.00 | 67 | 1012.9 |
| 20260902030009 | 24 | 294 | 0.0 | 1.6 | 0.00 | 0.00 | 0.00 | 66 | 1012.9 |
| 20260902024509 | 24 | 294 | 0.0 | 1.6 | 0.00 | 0.00 | 0.00 | 66 | 1012.7 |
| 20260902023008 | 25 | 294 | 0.0 | 1.6 | 0.00 | 0.00 | 0.00 | 66 | 1012.7 |
| 20260902021521 | 25 | 294 | 0.0 | 0.0 | 0.00 | 0.00 | 0.00 | 67 | 1012.6 |
| 20260902020008 | 25 | 294 | 0.0 | 0.0 | 0.00 | 0.00 | 0.00 | 68 | 1012.7 |
| 20260902014507 | 25 | 294 | 0.0 | 1.6 | 0.00 | 0.00 | 0.00 | 67 | 1012.6 |
| 20260902013006 | 25 | 294 | 0.0 | 1.6 | 0.00 | 0.00 | 0.00 | 66 | 1012.5 |
| 20260902011505 | 26 | 294 | 0.0 | 1.6 | 0.00 | 0.00 | 0.00 | 67 | 1012.4 |
| 20260902010010 | 26 | 294 | 0.0 | 1.6 | 0.00 | 0.00 | 0.00 | 66 | 1012.2 |
| 20260902004515 | 26 | 294 | 0.0 | 1.6 | 0.00 | 0.00 | 0.00 | 65 | 1012.2 |
| 20260902003004 | 27 | 294 | 0.0 | 4.8 | 0.00 | 0.00 | 0.00 | 64 | 1012.2 |
| 20260902001503 | 27 | 294 | 0.0 | 6.4 | 0.00 | 0.00 | 0.00 | 62 | 1012.3 |
| 20260902000006 | 27 | 257 | 1.6 | 4.8 | 0.00 | 0.00 | 0.00 | 62 | 1012.5 |
| 20260901234502 | 27 | 255 | 1.6 | 3.2 | 0.00 | 0.00 | 0.00 | 61 | 1012.6 |
| 20260901233001 | 27 | 254 | 1.6 | 4.8 | 0.00 | 0.00 | 0.00 | 60 | 1012.6 |
| 20260901231501 | 28 | 254 | 0.0 | 1.6 | 0.00 | 0.00 | 0.00 | 58 | 1012.6 |
| 20260901230100 | 28 | 254 | 1.6 | 4.8 | 0.00 | 0.00 | 0.00 | 57 | 1012.6 |
| 20260901224601 | 28 | 286 | 0.0 | 4.8 | 0.00 | 0.00 | 0.00 | 56 | 1012.6 |
| 20260901223100 | 28 | 288 | 1.6 | 8.0 | 0.00 | 0.00 | 0.00 | 55 | 1012.6 |
| 20260901221559 | 29 | 217 | 1.6 | 6.4 | 0.00 | 0.00 | 0.00 | 52 | 1012.6 |
| 20260901214558 | 28 | 212 | 3.2 | 8.0 | 0.00 | 0.00 | 0.00 | 55 | 1012.5 |
| 20260901213058 | 28 | 159 | 4.8 | 11.3 | 0.00 | 0.00 | 0.00 | 55 | 1012.5 |
| 20260901211558 | 28 | 232 | 4.8 | 9.7 | 0.00 | 0.00 | 0.00 | 56 | 1012.5 |
| 20260901210056 | 28 | 173 | 3.2 | 8.0 | 0.00 | 0.00 | 0.00 | 56 | 1012.3 |
| 20260901204556 | 28 | 178 | 3.2 | 6.4 | 0.00 | 0.00 | 0.00 | 52 | 1012.4 |
| 20260901203055 | 30 | 175 | 4.8 | 11.3 | 0.00 | 0.00 | 0.00 | 48 | 1012.7 |
| 20260901201553 | 30 | 200 | 4.8 | 8.0 | 0.00 | 0.00 | 0.00 | 48 | 1012.9 |
| 20260901200106 | 31 | 166 | 4.8 | 9.7 | 0.00 | 0.00 | 0.00 | 45 | 1012.7 |
| 20260901194601 | 30 | 278 | 1.6 | 9.7 | 0.00 | 0.00 | 0.00 | 47 | 1012.9 |
| 20260901193101 | 30 | 244 | 0.0 | 8.0 | 0.00 | 0.00 | 0.00 | 47 | 1012.8 |
| 20260901191548 | 30 | 236 | 0.0 | 14.5 | 0.00 | 0.00 | 0.00 | 45 | 1013.1 |
| 20260901190053 | 31 | 261 | 1.6 | 9.7 | 0.00 | 0.00 | 0.00 | 46 | 1013.1 |
| 20260901184551 | 30 | 248 | 1.6 | 9.7 | 0.00 | 0.00 | 0.00 | 45 | 1013.1 |
| 20260901183043 | 30 | 196 | 1.6 | 8.0 | 0.00 | 0.00 | 0.00 | 45 | 1013.0 |
| 20260901181542 | 31 | 217 | 1.6 | 6.4 | 0.00 | 0.00 | 0.00 | 43 | 1013.2 |
| 20260901180036 | 30 | 266 | 1.6 | 8.0 | 0.00 | 0.00 | 0.00 | 47 | 1013.5 |
| 20260901174539 | 30 | 309 | 3.2 | 8.0 | 0.00 | 0.00 | 0.00 | 47 | 1013.7 |
| 20260901173034 | 29 | 266 | 3.2 | 9.7 | 0.00 | 0.00 | 0.00 | 50 | 1013.8 |
| 20260901171529 | 30 | 319 | 1.6 | 9.7 | 0.00 | 0.00 | 0.00 | 47 | 1013.9 |
| 20260901170025 | 30 | 5 | 3.2 | 6.4 | 0.00 | 0.00 | 0.00 | 51 | 1013.9 |
| 20260901164522 | 30 | 302 | 1.6 | 4.8 | 0.00 | 0.00 | 0.00 | 50 | 1014.0 |
| 20260901163019 | 28 | 231 | 1.6 | 8.0 | 0.00 | 0.00 | 0.00 | 55 | 1013.9 |
| 20260901161518 | 28 | 311 | 0.0 | 4.8 | 0.00 | 0.00 | 0.00 | 59 | 1014.0 |
| 20260901160014 | 27 | 312 | 3.2 | 8.0 | 0.00 | 0.00 | 0.00 | 62 | 1013.7 |
| 20260901154508 | 26 | 321 | 3.2 | 8.0 | 0.00 | 0.00 | 0.00 | 62 | 1013.9 |